Regional Weather Roundup
Issued by NWS

Home | Current Version | Previous Version | Graphics & Text | Print | Product List | Glossary On
Versions: 1 2 3 4 5 6 7 8 9 10 11 12 13 14 15 16 17 18 19 20 21 22 23 24 25 26 27 28 29 30 31 32 33 34 35 36 37 38 39 40 41 42 43 44 45 46 47 48 49 50
000
ASUS43 KTOP 290808
RWRKS

WEATHER ROUNDUP FOR KANSAS
NATIONAL WEATHER SERVICE GOODLAND KS
300 AM CDT THU JUN 29 2017

NOTE:  "FAIR" INDICATES FEW OR NO CLOUDS BELOW 12,000 FEET WITH NO
SIGNIFICANT WEATHER AND/OR OBSTRUCTIONS TO VISIBILITY.

KSZ001>006-013>018-027>032-041>047-290900-
NORTHWEST KANSAS

CITY           SKY/WX    TMP DP  RH WIND       PRES   REMARKS
GOODLAND       RAIN      65  60  84 N5        29.89R
HAYS           CLOUDY    75  66  73 CALM      29.74R
HILL CITY      MOCLDY    74  65  73 E8        29.73S
RUSSELL        PTCLDY    77  65  66 S5        29.73R
$$

KSZ061>065-074>080-084>089-290900-
SOUTHWEST KANSAS

CITY           SKY/WX    TMP DP  RH WIND       PRES   REMARKS
DODGE CITY     CLEAR     73  65  75 SE12      29.72R
ELKHART          N/A     74  50  43 S15         N/A
GARDEN CITY    CLEAR     73  63  70 SE12      29.69F
GREAT BEND     CLEAR     75  67  76 S14       29.72R
LIBERAL        CLEAR     77  60  55 S23G30    29.70R
PRATT          CLEAR     73  64  73 S16       29.74R
$$

KSZ066>073-081>083-090>101-290900-
SOUTHEAST KANSAS

CITY           SKY/WX    TMP DP  RH WIND       PRES   REMARKS
CHANUTE        CLEAR     75  67  76 S9        29.81S
COFFEYVILLE    CLEAR     76  68  76 S13       29.81S
HUTCHINSON     CLEAR     77  66  68 S16       29.74S
MEDICINE LODGE   N/A     75  65  70 S13G20    29.73F
NEWTON         CLEAR     76  66  71 S22       29.76F
PARSONS        CLEAR     75  67  76 S5        29.83S
WICHITA INTL   PTCLDY    76  67  73 S15       29.75F
WICHITA JABRA  CLEAR     76  66  71 S16       29.76F
WICHITA MCCONL CLEAR     76  65  68 S17G25    29.76F
WINFIELD       CLEAR     75  67  76 S12       29.79F
$$

KSZ007>012-019>026-033>040-048>060-102>105-290900-
NORTHEAST KANSAS

CITY           SKY/WX    TMP DP  RH WIND       PRES   REMARKS
CONCORDIA      CLOUDY    69  64  84 N26G36    29.85R THUNDER
EMPORIA        PTCLDY    75  67  76 S10       29.78F
LAWRENCE       CLOUDY    79  69  71 SW12      29.81R
MANHATTAN      CLOUDY    75  62  64 E5        29.78F
MARYSVILLE     CLOUDY    70  64  83 W6        29.81R THUNDER
OLATHE IND     PTCLDY    76  67  73 S12G22    29.79F
OLATHE EXE     CLOUDY    75  68  78 S9        29.80F
SALINA         MOCLDY    81  66  60 S7        29.75S
TOPEKA BILLARD MOCLDY    80  69  69 S5        29.79S
TOPEKA FORBES  MOCLDY    79  68  69 W7        29.81R
$$




USA.gov is the U.S. government's official web portal to all federal, state and local government web resources and services.